EW6545 Weather Reports


time (UTC)temp
F
wind
direction
speed
knots
gust
knots
rain 1hr
in
rain 24hr
in
rain mn
in
humidity
%
barometer
mb
20260906214512 84 105 2.6 12.2 0.00 0.00 0.00 33 1001.7
20260906213008 84 207 0.9 5.2 0.00 0.00 0.00 31 1001.9
20260906211506 84 71 0.0 1.7 0.00 0.00 0.00 31 1001.9
20260906210004 84 43 0.9 8.7 0.00 0.00 0.00 29 1002.1
20260906204504 84 59 0.0 7.8 0.00 0.00 0.00 32 1002.1
20260906203057 84 355 0.0 1.7 0.00 0.00 0.00 32 1002.3
20260906201555 83 36 0.0 6.1 0.00 0.00 0.00 32 1002.3
20260906200054 82 45 0.0 0.0 0.00 0.00 0.00 32 1002.4
20260906194551 82 30 0.0 4.3 0.00 0.00 0.00 34 1002.5
20260906193049 83 28 0.0 7.8 0.00 0.00 0.00 36 1002.6
20260906191556 82 38 0.0 7.0 0.00 0.00 0.00 40 1002.8
20260906190045 81 10 0.0 7.0 0.00 0.00 0.00 42 1002.9
20260906184555 81 355 0.0 5.2 0.00 0.00 0.00 39 1002.9
20260906183047 82 13 0.0 3.5 0.00 0.00 0.00 39 1003.3
20260906181542 81 30 0.0 3.5 0.00 0.00 0.00 41 1003.4
20260906180053 80 5 0.0 3.5 0.00 0.00 0.00 43 1003.8
20260906174539 79 355 0.0 0.9 0.00 0.00 0.00 43 1004.1
20260906173038 79 12 0.0 0.0 0.00 0.00 0.00 42 1004.2
20260906171534 77 40 0.0 3.5 0.00 0.00 0.00 42 1004.4
20260906170033 78 40 0.0 3.5 0.00 0.00 0.00 42 1004.5
20260906164532 78 27 0.0 0.9 0.00 0.00 0.00 41 1004.5
20260906163027 77 5 0.0 0.9 0.00 0.00 0.00 40 1004.5
20260906161524 76 21 0.0 1.7 0.00 0.00 0.00 39 1004.4
20260906160021 75 21 0.0 3.5 0.00 0.00 0.00 39 1004.5
20260906154520 74 16 0.0 0.0 0.00 0.00 0.00 40 1004.5
20260906153019 74 11 0.9 3.5 0.00 0.00 0.00 41 1004.5
20260906151516 73 11 0.0 0.0 0.00 0.00 0.00 42 1004.6
20260906150015 71 304 0.0 0.9 0.00 0.00 0.00 45 1004.6
20260906144513 67 303 0.0 1.7 0.00 0.00 0.00 52 1004.5
20260906143009 62 303 0.0 0.0 0.00 0.00 0.00 58 1004.6
20260906141508 60 303 0.0 0.0 0.00 0.00 0.00 60 1004.7
20260906140004 60 303 0.0 0.0 0.00 0.00 0.00 61 1004.6
20260906134502 58 302 0.0 0.9 0.00 0.00 0.00 64 1004.6
20260906133001 56 312 0.0 4.3 0.00 0.00 0.00 69 1004.3
20260906131615 55 198 0.0 0.9 0.00 0.00 0.00 75 1004.1
20260906130107 56 198 0.0 1.7 0.00 0.00 0.00 75 1004.0
20260906124558 56 198 0.0 0.0 0.00 0.00 0.00 75 1003.9
20260906123057 55 141 0.0 0.0 0.00 0.00 0.00 74 1003.9
20260906121555 56 141 0.0 0.0 0.00 0.00 0.00 74 1004.0
20260906120059 56 141 0.0 0.0 0.00 0.00 0.00 72 1003.8
20260906114552 56 141 0.0 0.0 0.00 0.00 0.00 72 1003.9
20260906113050 56 141 0.0 0.0 0.00 0.00 0.00 72 1003.8
20260906111547 57 141 0.0 0.0 0.00 0.00 0.00 70 1003.6
20260906110043 58 141 0.0 0.0 0.00 0.00 0.00 67 1003.7
20260906104541 59 141 0.0 0.0 0.00 0.00 0.00 65 1003.5
20260906103040 59 141 0.0 0.0 0.00 0.00 0.00 64 1003.5
20260906101538 59 141 0.0 0.0 0.00 0.00 0.00 62 1003.4
20260906100039 59 141 0.0 0.0 0.00 0.00 0.00 59 1003.3
20260906094534 60 141 0.0 0.0 0.00 0.00 0.00 58 1003.1
20260906093040 61 141 0.0 0.0 0.00 0.00 0.00 56 1003.2
20260906091529 62 141 0.0 0.0 0.00 0.00 0.00 55 1002.9
20260906090028 63 141 0.0 0.0 0.00 0.00 0.00 53 1002.7
20260906084527 63 141 0.0 0.0 0.00 0.00 0.00 53 1002.6
20260906083026 63 141 0.0 0.0 0.00 0.00 0.00 53 1002.9
20260906081527 63 259 0.0 0.0 0.00 0.00 0.00 52 1002.9
20260906080023 63 259 0.0 0.0 0.00 0.00 0.00 51 1002.9
20260906074522 63 259 0.0 0.0 0.00 0.00 0.00 51 1003.1
20260906073024 62 260 0.0 0.0 0.00 0.00 0.00 53 1003.1
20260906071517 62 248 0.0 0.0 0.00 0.00 0.00 52 1003.3
20260906070017 63 248 0.0 0.0 0.00 0.00 0.00 51 1003.6
20260906064518 62 248 0.0 0.0 0.00 0.00 0.00 53 1003.6
20260906063014 62 248 0.0 0.0 0.00 0.00 0.00 52 1003.4
20260906061509 63 248 0.0 0.0 0.00 0.00 0.00 49 1003.6
20260906060004 65 248 0.0 0.0 0.00 0.00 0.00 45 1003.7
20260906054503 66 249 0.0 0.9 0.00 0.00 0.00 42 1003.7
20260906053003 66 249 0.0 0.0 0.00 0.00 0.00 41 1003.4
20260906051601 66 249 0.0 0.0 0.00 0.00 0.00 41 1003.2
20260906050058 66 249 0.0 0.0 0.00 0.00 0.00 40 1002.9
20260906044557 66 249 0.0 0.0 0.00 0.00 0.00 40 1002.8
20260906043057 67 249 0.0 0.0 0.00 0.00 0.00 40 1002.7
20260906041556 66 249 0.0 0.0 0.00 0.00 0.00 41 1002.7
20260906040056 66 249 0.0 0.0 0.00 0.00 0.00 41 1002.7
20260906034555 66 249 0.0 0.0 0.00 0.00 0.00 41 1002.8
20260906033100 66 249 0.0 0.0 0.00 0.00 0.00 41 1002.7
20260906031558 66 249 0.0 0.0 0.00 0.00 0.00 41 1002.6
20260906030055 66 249 0.0 0.9 0.00 0.00 0.00 41 1002.4
20260906024552 66 249 0.0 0.0 0.00 0.00 0.00 42 1002.1
20260906023052 67 249 0.0 0.0 0.00 0.00 0.00 41 1002.0
20260906021557 69 249 0.0 0.0 0.00 0.00 0.00 38 1001.7
20260906020054 71 249 0.0 0.0 0.00 0.00 0.00 36 1001.5
20260906014556 71 257 0.0 3.5 0.00 0.00 0.00 37 1001.5
20260906013051 70 259 0.0 6.1 0.00 0.00 0.00 39 1001.4
20260906011602 71 302 0.0 1.7 0.00 0.00 0.00 39 1001.6
20260906010049 71 243 0.0 0.0 0.00 0.00 0.00 40 1001.8
20260906004549 72 297 0.0 5.2 0.00 0.00 0.00 39 1002.0
20260906003048 73 304 1.7 8.7 0.00 0.00 0.00 39 1002.1
20260906001548 72 302 0.9 7.8 0.00 0.00 0.00 40 1002.1
20260906000047 72 300 2.6 13.0 0.00 0.00 0.00 41 1002.3
20260905234546 75 234 0.9 10.4 0.00 0.00 0.00 36 1002.2
20260905233104 76 251 3.5 13.9 0.00 0.00 0.00 32 1002.0
20260905231552 76 256 0.0 0.0 0.00 0.00 0.00 31 1001.6
20260905230047 76 296 0.0 4.3 0.00 0.00 0.00 31 1001.2
20260905224604 76 292 0.0 13.9 0.00 0.00 0.00 32 1001.6
20260905223043 80 46 0.0 0.0 0.00 0.00 0.00 27 1001.1
20260905221542 81 46 0.0 0.0 0.00 0.00 0.00 24 1000.9
20260905220048 82 144 0.0 7.0 0.00 0.00 0.00 24 1000.7